|
2011 QJ21 |
| ephemeris |
date |
magn |
radius |
delta |
ra |
dec |
elong |
phase |
| Today | 4 Sep 2026 | 25.6 | 0.669 AU | 1.610 AU | 11h43m | +07°42' | 13.3° | 20.2° |
2011 QJ21 - 2026-09-04
astro.vanbuitenen.nl
The interactive orbit chart above shows the body's path through the solar system and its position at the given date.
Green and blue lines are shown perpendicular to the ecliptic plane: Green if the path is above the ecliptic plane, blue if it is below.
(Left-click and drag to rotate the view; Right-click and drag to move the view; Use scroll wheel to zoom in our out.)
The orbital elements of 2011 QJ21 are:
e (Eccentricity) : 0.3822730
a (Semimajor axis) : 1.0593517
i (Inclination) : 19.40677
Ω (Longitude of ascending node) : 150.13326
ω (Argument of perihelion) : 66.88391
M (Mean anomaly) : 271.65094
Epoch : 2026 Jun 09
L (Longitude of perihelion) : 215.78259
B (Latitude of perihelion) : 17.79395
P (Orbital period in years) : 1.09
The light curve chart below shows the estimated development of the minor planet's magnitude.
The all-sky chart below shows the path of the minor planet over the same period as the light curve. The current position is marked yellow.
The following chart shows the path of the minor planet in the next few days. The field of view is optimized for (~10x50) binoculars and finderscopes.
Ephemerides:
Date Time RA (2000) DEC (2000) delta radius elong phase PA magn
2026-09-04 00:00 UT 11 43 52.5 +07 42 57 1.610 0.669 13.3 20.2 89 25.6
2026-09-04 16:30 UT 11 47 32.5 +07 28 48 1.604 0.667 13.6 20.8 89 25.6
2026-09-05 00:00 UT 11 49 12.7 +07 22 18 1.602 0.667 13.7 21.0 89 25.6
2026-09-06 00:00 UT 11 54 34.0 +07 01 11 1.594 0.664 14.2 21.8 89 25.6
2026-09-07 00:00 UT 11 59 56.3 +06 39 39 1.587 0.662 14.6 22.6 89 25.6
2026-09-08 00:00 UT 12 05 19.6 +06 17 41 1.579 0.660 15.1 23.4 89 25.7
2026-09-09 00:00 UT 12 10 43.9 +05 55 17 1.572 0.659 15.5 24.1 89 25.7
2026-09-10 00:00 UT 12 16 09.1 +05 32 27 1.564 0.657 16.0 24.9 89 25.7
Terminology:
delta: distance between minor planet and earth in AU
radius: distance between minor planet and sun in AU
magn: magnitude (brightness) estimate
ra: right ascension in hours (24h = 360deg)
dec: declination in degrees
elong: elongation in degrees (angle sun-earth-minor planet)
phase: phase angle in degrees (angle sun-minor planet-earth)
AU: Astronomical Unit (mean distance between earth and sun: 149597870.7 km
Orbital elements provided by the MPC (Minor Planet Center).
Calculations by a modified version of AAPlus, a C# implementation of the AA+ project by PJ Naughter from the algorithms presented in the book "Astronomical Algorithms" by Jean Meeus.
NGC2000 dso catalog and star labels from VizieR as provided by the Strasbourg astronomical Data Center.
Tycho2 catalog from the ESO archive.